Weather in Romny

Ukraine / Sumi District     50°44′39″N   33°29′01″E
temp.,
°C
wind,
m/s
gust,
m/s
humid.,
%
clouds,
%
prec.,
mm/h
press.,
hPa
HPBL,
m
27 october, wed
wed2700:00+3ssw4126410 0.0 1028239
03:00+2ssw411685 0.0 1027229
06:00+2ssw513754 0.0 1026272
09:00+3ssw513770 0.0 1025367
12:00+8sw7106919 0.0 1024712
15:00+10wsw67614 0.0 1023953
18:00+8wsw3667100 0.0 1023166
21:00+6wnw337159 0.0 102357
28 october, thu
thu2800:00+5w348164 0.0 102451
03:00+5wsw3588100 0.0 102390
06:00+5wsw4992100 0.0 1023178
09:00+7sw51281100 0.1 1022352
12:00+10w61073100 0.0 1021526
15:00+10wnw51178100 0.0 1021590
18:00+10wnw4984100 0.1 1021373
21:00+8nw4993100 0.1 1023306
29 october, fri
fri2900:00+7nw37955 0.0 1024133
03:00+6n35965 0.0 1026109
06:00+5nne34935 0.0 102758
09:00+5ne25845 0.0 1029140
12:00+10ene33600 0.0 1029542
15:00+12e23540 0.0 1029825
18:00+8e22740 0.0 103015
21:00+6ese34810 0.0 103155
30 october, sat
sat3000:00+5se35885 0.0 103278
03:00+4sse35910 0.0 103278
06:00+4sse34925 0.0 103357
09:00+5se36874 0.0 1033152
12:00+11sse35645 0.0 1033479
15:00+12sse34545 0.0 1032777
18:00+8se33675 0.0 103230
21:00+6se35681 0.0 103365
31 october, sun
sun3100:00+5sse34680 0.0 103354
03:00+4sse33750 0.0 103341
05:00+4se34820 0.0 103352
08:00+5se37830 0.0 1032178
11:00+10sse47580 0.0 1031526
14:00+12se45500 0.0 1029744
17:00+8ese46680 0.0 102985
20:00+6se410760 0.0 1028173